Flag Weather past 2 weeks in Potsdam, Brandenburg, Germany

Now
31 °F

Overcast.


Feels Like: 25 °F
Forecast: 25 / 31 °F
Wind: 6 mph from East

Location: Potsdam

Current Time: Nov 29, 2014 at 8:46:12 AM

Latest Report: Nov 29, 2014 at 8:00 AM


Visibility: 5 mi

Pressure: 30.21 "Hg

Humidity: 87%

Dew point: 27 °F

Location of PotsdamLocation

Historic Weather in Potsdam — Graph

°F

Potsdam temperature yesterday

Maximum temperature yesterday: 36 °F (at 12:00 AM)
Minimum temperature yesterday: 32 °F (at 11:00 PM)
Average temperature yesterday: 34 °F

Past Weeks' High & Low Weather Summary

 TemperatureHumidityPressure
High53 °F (Nov 14, 12:00 PM)100% (Nov 24, 11:00 PM)30.38 "Hg (Nov 24, 11:00 PM)
Low31 °F (Nov 29, 5:00 AM)72% (Nov 22, 2:00 PM)29.57 "Hg (Nov 16, 2:00 PM)
Average41 °F92%30.09 "Hg
* Reported Nov 14 8:00 AM — Nov 29 8:00 AM, Potsdam, Weather by CustomWeather, © 2014

Note: Actual official high and low records may vary slightly from our data, if they occured in-between our weather recording intervals... More about our weather records

Advertising

Potsdam weather history for previous 24 hours

 ConditionsComfort  
Time TempWeatherWind HumidityBarometerVisibility
8:00 AM
Nov 29
31 °FOvercast.6 mph87%30.21 "Hg5 mi
7:00 AM31 °FOvercast.7 mph86%30.20 "Hg5 mi
6:00 AM31 °FOvercast.7 mph86%30.19 "Hg5 mi
5:00 AM31 °FOvercast.6 mph84%30.18 "Hg5 mi
4:00 AM31 °FOvercast.6 mph85%30.19 "Hg6 mi
3:00 AM31 °FOvercast.7 mph84%30.19 "Hg6 mi
2:00 AM31 °FOvercast.6 mph83%30.20 "Hg6 mi
1:00 AM31 °FOvercast.7 mph82%30.20 "Hg7 mi
12:00 AM32 °FOvercast.7 mph81%30.19 "Hg8 mi
11:00 PM
Nov 28
32 °FOvercast.7 mph80%30.19 "Hg9 mi
10:00 PM32 °FOvercast.7 mph81%30.18 "Hg9 mi
9:00 PM33 °FOvercast.7 mph83%30.17 "Hg6 mi
8:00 PM33 °FOvercast.7 mph84%30.16 "Hg6 mi
7:00 PM34 °FFog.8 mph83%30.15 "Hg4 mi
6:00 PM34 °FFog.7 mph84%30.14 "Hg4 mi
5:00 PM34 °FFog.7 mph84%30.13 "Hg3 mi
4:00 PM34 °FFog.7 mph84%30.12 "Hg4 mi
3:00 PM35 °FFog.7 mph84%30.12 "Hg4 mi
2:00 PM35 °FOvercast.6 mph84%30.12 "Hg5 mi
1:00 PM35 °FOvercast.6 mph83%30.12 "Hg6 mi
12:00 PM34 °FOvercast.6 mph83%30.12 "Hg6 mi
11:00 AM34 °FOvercast.7 mph83%30.13 "Hg7 mi
10:00 AM33 °FOvercast.6 mph82%30.12 "Hg6 mi
9:00 AM33 °FOvercast.7 mph84%30.13 "Hg6 mi
8:00 AM33 °FOvercast.7 mph84%30.12 "Hg6 mi
Weather by CustomWeather, © 2014

See weather overviewHow to use our weather pages